| time (UTC) | temp C | wind direction | speed KPH | gust KPH | rain 1hr cm | rain 24hr cm | rain mn cm | humidity % | barometer mb |
| 20260504033307 | 7 | 207 | 0.0 | 0.0 | 0.00 | 0.00 | 0.00 | 66 | 1016.5 |
| 20260504032803 | 7 | 207 | 0.0 | 0.0 | 0.00 | 0.00 | 0.00 | 68 | 1016.2 |
| 20260504032301 | 7 | 207 | 0.0 | 0.0 | 0.00 | 0.00 | 0.00 | 69 | 1016.1 |
| 20260504031757 | 7 | 207 | 0.0 | 0.0 | 0.00 | 0.00 | 0.00 | 69 | 1016.4 |
| 20260504031255 | 7 | 206 | 0.0 | 0.0 | 0.00 | 0.00 | 0.00 | 69 | 1016.3 |
| 20260504030750 | 7 | 206 | 0.0 | 0.0 | 0.00 | 0.00 | 0.00 | 68 | 1016.2 |
| 20260504030248 | 7 | 206 | 0.0 | 0.0 | 0.00 | 0.00 | 0.00 | 67 | 1016.4 |
| 20260504025744 | 7 | 206 | 0.0 | 0.0 | 0.00 | 0.00 | 0.00 | 66 | 1016.5 |
| 20260504025241 | 7 | 206 | 0.0 | 0.0 | 0.00 | 0.00 | 0.00 | 67 | 1016.4 |
| 20260504024738 | 7 | 206 | 0.0 | 0.0 | 0.00 | 0.00 | 0.00 | 66 | 1016.3 |
| 20260504024235 | 7 | 206 | 0.0 | 0.0 | 0.00 | 0.00 | 0.00 | 63 | 1016.5 |
| 20260504023732 | 7 | 207 | 0.0 | 1.6 | 0.00 | 0.00 | 0.00 | 64 | 1016.4 |
| 20260504023228 | 7 | 206 | 0.0 | 0.0 | 0.00 | 0.00 | 0.00 | 66 | 1016.5 |
| 20260504022724 | 7 | 207 | 0.0 | 0.0 | 0.00 | 0.00 | 0.00 | 64 | 1016.8 |
| 20260504022220 | 8 | 207 | 0.0 | 0.0 | 0.00 | 0.00 | 0.00 | 63 | 1016.5 |
| 20260504021718 | 8 | 207 | 0.0 | 0.0 | 0.00 | 0.00 | 0.00 | 65 | 1016.4 |
| 20260504021215 | 8 | 207 | 0.0 | 0.0 | 0.00 | 0.00 | 0.00 | 64 | 1016.5 |
| 20260504020711 | 8 | 206 | 0.0 | 1.6 | 0.00 | 0.00 | 0.00 | 65 | 1016.1 |
| 20260504020208 | 8 | 206 | 0.0 | 0.0 | 0.00 | 0.00 | 0.00 | 65 | 1016.3 |
| 20260504015704 | 8 | 206 | 0.0 | 0.0 | 0.00 | 0.00 | 0.00 | 60 | 1016.3 |
| 20260504015200 | 8 | 207 | 0.0 | 0.0 | 0.00 | 0.00 | 0.00 | 61 | 1016.3 |
| 20260504014656 | 8 | 207 | 0.0 | 0.0 | 0.00 | 0.00 | 0.00 | 60 | 1016.3 |
| 20260504014153 | 8 | 207 | 0.0 | 0.0 | 0.00 | 0.00 | 0.00 | 58 | 1016.4 |
| 20260504013651 | 8 | 206 | 0.0 | 0.0 | 0.00 | 0.00 | 0.00 | 58 | 1016.2 |
| 20260504013148 | 8 | 206 | 0.0 | 0.0 | 0.00 | 0.00 | 0.00 | 60 | 1016.2 |
| 20260504012645 | 8 | 206 | 0.0 | 0.0 | 0.00 | 0.00 | 0.00 | 56 | 1016.0 |
| 20260504012143 | 8 | 206 | 0.0 | 0.0 | 0.00 | 0.00 | 0.00 | 60 | 1016.0 |
| 20260504011639 | 8 | 207 | 0.0 | 0.0 | 0.00 | 0.00 | 0.00 | 57 | 1015.9 |
| 20260504011136 | 8 | 207 | 0.0 | 0.0 | 0.00 | 0.00 | 0.00 | 57 | 1016.1 |
| 20260504010632 | 8 | 207 | 0.0 | 0.0 | 0.00 | 0.00 | 0.00 | 55 | 1016.0 |
| 20260504010128 | 8 | 207 | 0.0 | 0.0 | 0.00 | 0.00 | 0.00 | 56 | 1015.9 |
| 20260504005625 | 7 | 207 | 0.0 | 0.0 | 0.00 | 0.00 | 0.00 | 58 | 1016.0 |
| 20260504005122 | 8 | 207 | 0.0 | 0.0 | 0.00 | 0.00 | 0.00 | 60 | 1015.9 |
| 20260504004620 | 7 | 207 | 0.0 | 0.0 | 0.00 | 0.00 | 0.00 | 56 | 1015.8 |
| 20260504004117 | 7 | 206 | 0.0 | 0.0 | 0.00 | 0.00 | 0.00 | 54 | 1016.0 |
| 20260504003613 | 8 | 206 | 0.0 | 0.0 | 0.00 | 0.00 | 0.00 | 59 | 1015.6 |
| 20260504003110 | 8 | 207 | 0.0 | 0.0 | 0.00 | 0.00 | 0.00 | 55 | 1015.5 |
| 20260504002606 | 8 | 206 | 0.0 | 0.0 | 0.00 | 0.00 | 0.00 | 57 | 1015.6 |
| 20260504002104 | 8 | 207 | 0.0 | 0.0 | 0.00 | 0.00 | 0.00 | 53 | 1015.5 |
| 20260504001602 | 8 | 207 | 0.0 | 0.0 | 0.00 | 0.00 | 0.00 | 50 | 1015.5 |
| 20260504001057 | 8 | 207 | 0.0 | 0.0 | 0.00 | 0.00 | 0.00 | 53 | 1015.7 |
| 20260504000555 | 9 | 206 | 0.0 | 0.0 | 0.00 | 0.00 | 0.00 | 49 | 1015.6 |
| 20260504000052 | 10 | 206 | 0.0 | 0.0 | 0.00 | 0.00 | 0.00 | 48 | 1015.5 |
| 20260503235550 | 10 | 207 | 1.6 | 1.6 | 0.00 | 0.00 | 0.00 | 47 | 1015.6 |
| 20260503235047 | 10 | 207 | 0.0 | 0.0 | 0.00 | 0.00 | 0.00 | 47 | 1015.5 |
| 20260503234545 | 10 | 207 | 0.0 | 0.0 | 0.00 | 0.00 | 0.00 | 46 | 1015.7 |
| 20260503234043 | 10 | 207 | 0.0 | 0.0 | 0.00 | 0.00 | 0.00 | 46 | 1015.5 |
| 20260503233539 | 11 | 207 | 0.0 | 1.6 | 0.00 | 0.00 | 0.00 | 44 | 1015.5 |
| 20260503233035 | 11 | 206 | 0.0 | 1.6 | 0.00 | 0.00 | 0.00 | 40 | 1015.5 |
| 20260503232532 | 11 | 207 | 0.0 | 0.0 | 0.00 | 0.00 | 0.00 | 39 | 1015.4 |
| 20260503232030 | 12 | 207 | 3.2 | 3.2 | 0.00 | 0.00 | 0.00 | 38 | 1015.5 |
| 20260503231527 | 12 | 207 | 1.6 | 1.6 | 0.00 | 0.00 | 0.00 | 36 | 1015.5 |
| 20260503231024 | 12 | 207 | 3.2 | 3.2 | 0.00 | 0.00 | 0.00 | 33 | 1015.5 |
| 20260503230520 | 12 | 207 | 0.0 | 0.0 | 0.00 | 0.00 | 0.00 | 40 | 1015.5 |
| 20260503230018 | 12 | 207 | 3.2 | 3.2 | 0.00 | 0.00 | 0.00 | 37 | 1015.5 |
| 20260503225515 | 13 | 207 | 0.0 | 0.0 | 0.00 | 0.00 | 0.00 | 36 | 1015.6 |
| 20260503225010 | 13 | 207 | 0.0 | 0.0 | 0.00 | 0.00 | 0.00 | 34 | 1015.4 |
| 20260503224508 | 14 | 207 | 3.2 | 3.2 | 0.00 | 0.00 | 0.00 | 30 | 1015.5 |
| 20260503224005 | 14 | 207 | 4.8 | 6.4 | 0.00 | 0.00 | 0.00 | 28 | 1015.6 |
| 20260503223503 | 14 | 207 | 1.6 | 3.2 | 0.00 | 0.00 | 0.00 | 33 | 1015.4 |
| 20260503222958 | 15 | 207 | 0.0 | 1.6 | 0.00 | 0.00 | 0.00 | 28 | 1015.4 |
| 20260503222457 | 15 | 207 | 3.2 | 3.2 | 0.00 | 0.00 | 0.00 | 31 | 1015.4 |
| 20260503221954 | 15 | 207 | 1.6 | 1.6 | 0.00 | 0.00 | 0.00 | 29 | 1015.5 |
| 20260503221453 | 15 | 207 | 1.6 | 1.6 | 0.00 | 0.00 | 0.00 | 28 | 1015.5 |
| 20260503220949 | 15 | 207 | 3.2 | 3.2 | 0.00 | 0.00 | 0.00 | 28 | 1015.5 |
| 20260503220445 | 15 | 207 | 0.0 | 1.6 | 0.00 | 0.00 | 0.00 | 30 | 1015.5 |
| 20260503215943 | 15 | 207 | 3.2 | 4.8 | 0.00 | 0.00 | 0.00 | 28 | 1015.5 |
| 20260503215439 | 13 | 207 | 6.4 | 6.4 | 0.00 | 0.00 | 0.00 | 32 | 1015.3 |
| 20260503214937 | 14 | 207 | 3.2 | 3.2 | 0.00 | 0.00 | 0.00 | 29 | 1015.5 |
| 20260503214435 | 14 | 207 | 6.4 | 6.4 | 0.00 | 0.00 | 0.00 | 30 | 1015.5 |
| 20260503213932 | 14 | 208 | 4.8 | 4.8 | 0.00 | 0.00 | 0.00 | 31 | 1015.4 |
| 20260503213430 | 15 | 207 | 3.2 | 3.2 | 0.00 | 0.00 | 0.00 | 33 | 1015.2 |
| 20260503212926 | 14 | 208 | 3.2 | 4.8 | 0.00 | 0.00 | 0.00 | 33 | 1015.4 |
| 20260503212424 | 15 | 207 | 3.2 | 3.2 | 0.00 | 0.00 | 0.00 | 27 | 1015.6 |
| 20260503211921 | 15 | 207 | 0.0 | 0.0 | 0.00 | 0.00 | 0.00 | 26 | 1015.6 |
| 20260503211418 | 15 | 207 | 1.6 | 1.6 | 0.00 | 0.00 | 0.00 | 30 | 1015.4 |
| 20260503210913 | 15 | 208 | 1.6 | 3.2 | 0.00 | 0.00 | 0.00 | 32 | 1015.4 |
| 20260503210410 | 14 | 208 | 4.8 | 6.4 | 0.00 | 0.00 | 0.00 | 30 | 1015.5 |
| 20260503205910 | 14 | 208 | 3.2 | 3.2 | 0.00 | 0.00 | 0.00 | 33 | 1015.6 |
| 20260503205408 | 13 | 208 | 8.0 | 9.7 | 0.00 | 0.00 | 0.00 | 26 | 1015.6 |
| 20260503204904 | 14 | 208 | 4.8 | 4.8 | 0.00 | 0.00 | 0.00 | 27 | 1015.6 |
| 20260503204401 | 15 | 207 | 4.8 | 4.8 | 0.00 | 0.00 | 0.00 | 26 | 1015.8 |
| 20260503203858 | 15 | 207 | 8.0 | 9.7 | 0.00 | 0.00 | 0.00 | 26 | 1015.6 |
| 20260503203356 | 14 | 207 | 9.7 | 11.3 | 0.00 | 0.00 | 0.00 | 27 | 1015.8 |
| 20260503202852 | 15 | 208 | 3.2 | 3.2 | 0.00 | 0.00 | 0.00 | 29 | 1015.9 |
| 20260503202351 | 14 | 207 | 3.2 | 4.8 | 0.00 | 0.00 | 0.00 | 34 | 1015.6 |
| 20260503201849 | 13 | 208 | 1.6 | 3.2 | 0.00 | 0.00 | 0.00 | 32 | 1015.8 |
| 20260503201345 | 14 | 208 | 1.6 | 3.2 | 0.00 | 0.00 | 0.00 | 27 | 1015.9 |
| 20260503200843 | 13 | 207 | 4.8 | 4.8 | 0.00 | 0.00 | 0.00 | 29 | 1016.1 |
| 20260503200338 | 13 | 207 | 6.4 | 9.7 | 0.00 | 0.00 | 0.00 | 27 | 1016.2 |
| 20260503195836 | 13 | 207 | 3.2 | 3.2 | 0.00 | 0.00 | 0.00 | 27 | 1016.1 |
| 20260503195332 | 15 | 207 | 3.2 | 4.8 | 0.00 | 0.00 | 0.00 | 27 | 1016.4 |
| 20260503194830 | 13 | 207 | 3.2 | 3.2 | 0.00 | 0.00 | 0.00 | 32 | 1016.5 |
| 20260503194326 | 13 | 208 | 3.2 | 3.2 | 0.00 | 0.00 | 0.00 | 29 | 1016.5 |
| 20260503193822 | 14 | 207 | 3.2 | 4.8 | 0.00 | 0.00 | 0.00 | 28 | 1016.8 |
| 20260503193318 | 13 | 208 | 3.2 | 4.8 | 0.00 | 0.00 | 0.00 | 31 | 1016.9 |
| 20260503192814 | 13 | 207 | 1.6 | 1.6 | 0.00 | 0.00 | 0.00 | 28 | 1016.7 |
| 20260503192309 | 13 | 208 | 3.2 | 6.4 | 0.00 | 0.00 | 0.00 | 29 | 1016.8 |
| 20260503191806 | 14 | 208 | 6.4 | 11.3 | 0.00 | 0.00 | 0.00 | 31 | 1016.9 |
| 20260503191303 | 13 | 208 | 4.8 | 4.8 | 0.00 | 0.00 | 0.00 | 29 | 1016.9 |
| 20260503190800 | 13 | 208 | 1.6 | 3.2 | 0.00 | 0.00 | 0.00 | 28 | 1016.8 |
| 20260503190257 | 13 | 208 | 3.2 | 4.8 | 0.00 | 0.00 | 0.00 | 28 | 1016.8 |
| 20260503185754 | 13 | 208 | 0.0 | 1.6 | 0.00 | 0.00 | 0.00 | 36 | 1016.9 |
| 20260503185250 | 13 | 207 | 3.2 | 3.2 | 0.00 | 0.00 | 0.00 | 27 | 1017.0 |
| 20260503184744 | 13 | 208 | 6.4 | 11.3 | 0.00 | 0.00 | 0.00 | 30 | 1017.0 |
| 20260503184241 | 13 | 208 | 0.0 | 0.0 | 0.00 | 0.00 | 0.00 | 35 | 1016.8 |
| 20260503183737 | 13 | 208 | 4.8 | 6.4 | 0.00 | 0.00 | 0.00 | 34 | 1016.9 |
| 20260503183235 | 13 | 207 | 3.2 | 3.2 | 0.00 | 0.00 | 0.00 | 28 | 1016.9 |
| 20260503182732 | 13 | 207 | 1.6 | 1.6 | 0.00 | 0.00 | 0.00 | 30 | 1017.0 |
| 20260503182231 | 12 | 208 | 0.0 | 0.0 | 0.00 | 0.00 | 0.00 | 31 | 1017.1 |
| 20260503181727 | 12 | 208 | 16.1 | 22.5 | 0.00 | 0.00 | 0.00 | 30 | 1017.3 |
| 20260503181224 | 12 | 208 | 6.4 | 6.4 | 0.00 | 0.00 | 0.00 | 30 | 1017.4 |
| 20260503180721 | 12 | 208 | 3.2 | 4.8 | 0.00 | 0.00 | 0.00 | 33 | 1017.6 |
| 20260503180219 | 12 | 208 | 3.2 | 6.4 | 0.00 | 0.00 | 0.00 | 31 | 1017.6 |
| 20260503175715 | 13 | 208 | 3.2 | 3.2 | 0.00 | 0.00 | 0.00 | 34 | 1017.6 |
| 20260503175214 | 12 | 207 | 1.6 | 3.2 | 0.00 | 0.00 | 0.00 | 32 | 1017.3 |
| 20260503174709 | 12 | 208 | 3.2 | 4.8 | 0.00 | 0.00 | 0.00 | 37 | 1017.6 |
| 20260503174207 | 12 | 207 | 8.0 | 11.3 | 0.00 | 0.00 | 0.00 | 29 | 1017.7 |
| 20260503173702 | 12 | 207 | 0.0 | 0.0 | 0.00 | 0.00 | 0.00 | 31 | 1017.5 |
| 20260503173158 | 11 | 207 | 3.2 | 4.8 | 0.00 | 0.00 | 0.00 | 40 | 1017.7 |
| 20260503172655 | 11 | 207 | 1.6 | 3.2 | 0.00 | 0.00 | 0.00 | 38 | 1017.6 |
| 20260503172152 | 11 | 207 | 9.7 | 11.3 | 0.00 | 0.00 | 0.00 | 34 | 1017.6 |
| 20260503171649 | 11 | 207 | 6.4 | 6.4 | 0.00 | 0.00 | 0.00 | 34 | 1017.8 |
| 20260503171146 | 11 | 207 | 3.2 | 3.2 | 0.00 | 0.00 | 0.00 | 33 | 1017.6 |
| 20260503170643 | 11 | 207 | 3.2 | 4.8 | 0.00 | 0.00 | 0.00 | 33 | 1017.8 |
| 20260503170140 | 10 | 207 | 1.6 | 3.2 | 0.00 | 0.00 | 0.00 | 39 | 1017.7 |
| 20260503160107 | 9 | 207 | 4.8 | 4.8 | 0.00 | 0.00 | 0.00 | 38 | 1018.5 |
| 20260503150537 | 7 | 207 | 12.9 | 16.1 | 0.00 | 0.00 | 0.00 | 43 | 1019.1 |
| 20260503130927 | 5 | 207 | 4.8 | 6.4 | 0.00 | 0.00 | 0.00 | 56 | 1018.7 |
| 20260503130424 | 5 | 207 | 6.4 | 9.7 | 0.00 | 0.00 | 0.00 | 57 | 1018.6 |
| 20260503110326 | -2 | 206 | 0.0 | 0.0 | 0.00 | 0.00 | 0.00 | 94 | 1017.7 |
| 20260503100252 | -1 | 207 | 0.0 | 0.0 | 0.00 | 0.00 | 0.00 | 89 | 1017.2 |
| 20260503090211 | 0 | 207 | 0.0 | 0.0 | 0.00 | 0.00 | 0.00 | 85 | 1016.1 |
| 20260503081144 | 2 | 206 | 0.0 | 1.6 | 0.00 | 0.00 | 0.00 | 66 | 1016.1 |
| 20260503080640 | 2 | 206 | 0.0 | 0.0 | 0.00 | 0.00 | 0.00 | 67 | 1016.1 |
| 20260503080138 | 2 | 206 | 1.6 | 3.2 | 0.00 | 0.00 | 0.00 | 67 | 1016.1 |
| 20260503072615 | 2 | 206 | 0.0 | 0.0 | 0.00 | 0.00 | 0.00 | 71 | 1016.1 |
| 20260503072112 | 2 | 206 | 0.0 | 0.0 | 0.00 | 0.00 | 0.00 | 74 | 1015.9 |
| 20260503071608 | 1 | 206 | 1.6 | 1.6 | 0.00 | 0.00 | 0.00 | 75 | 1015.9 |
| 20260503071105 | 1 | 206 | 0.0 | 0.0 | 0.00 | 0.00 | 0.00 | 82 | 1015.6 |
| 20260503070602 | 1 | 206 | 1.6 | 1.6 | 0.00 | 0.00 | 0.00 | 83 | 1015.7 |
| 20260503055020 | 2 | 206 | 0.0 | 0.0 | 0.00 | 0.00 | 0.00 | 82 | 1015.7 |
| 20260503054516 | 2 | 206 | 0.0 | 0.0 | 0.00 | 0.00 | 0.00 | 82 | 1015.8 |
| 20260503054014 | 2 | 206 | 0.0 | 0.0 | 0.00 | 0.00 | 0.00 | 81 | 1015.7 |
| 20260503053512 | 2 | 206 | 0.0 | 0.0 | 0.00 | 0.00 | 0.00 | 82 | 1015.6 |
| 20260503053009 | 2 | 206 | 0.0 | 0.0 | 0.00 | 0.00 | 0.00 | 81 | 1015.5 |
| 20260503052506 | 2 | 206 | 0.0 | 0.0 | 0.00 | 0.00 | 0.00 | 82 | 1015.5 |
| 20260503052002 | 2 | 206 | 0.0 | 0.0 | 0.00 | 0.00 | 0.00 | 82 | 1015.5 |
| 20260503051458 | 2 | 206 | 0.0 | 0.0 | 0.00 | 0.00 | 0.00 | 82 | 1015.5 |
| 20260503050955 | 2 | 206 | 0.0 | 0.0 | 0.00 | 0.00 | 0.00 | 79 | 1015.5 |
| 20260503050451 | 2 | 206 | 0.0 | 0.0 | 0.00 | 0.00 | 0.00 | 80 | 1015.7 |
| 20260503045949 | 2 | 206 | 0.0 | 0.0 | 0.00 | 0.00 | 0.00 | 81 | 1015.4 |
| 20260503045446 | 2 | 206 | 0.0 | 0.0 | 0.00 | 0.00 | 0.00 | 82 | 1015.6 |
| 20260503044943 | 2 | 206 | 0.0 | 0.0 | 0.00 | 0.00 | 0.00 | 81 | 1015.7 |
| 20260503044439 | 1 | 206 | 0.0 | 0.0 | 0.00 | 0.00 | 0.00 | 81 | 1015.5 |
| 20260503043937 | 2 | 206 | 0.0 | 0.0 | 0.00 | 0.00 | 0.00 | 80 | 1015.5 |
| 20260503043433 | 2 | 206 | 0.0 | 0.0 | 0.00 | 0.00 | 0.00 | 79 | 1015.4 |
| 20260503042930 | 2 | 206 | 0.0 | 0.0 | 0.00 | 0.00 | 0.00 | 80 | 1015.5 |
| 20260503042427 | 2 | 206 | 1.6 | 3.2 | 0.00 | 0.00 | 0.00 | 80 | 1015.3 |
| 20260503041923 | 2 | 206 | 0.0 | 0.0 | 0.00 | 0.00 | 0.00 | 79 | 1015.4 |
| 20260503041420 | 2 | 206 | 0.0 | 0.0 | 0.00 | 0.00 | 0.00 | 79 | 1015.3 |
| 20260503040917 | 2 | 206 | 1.6 | 1.6 | 0.00 | 0.00 | 0.00 | 78 | 1015.4 |
| 20260503040415 | 2 | 206 | 0.0 | 0.0 | 0.00 | 0.00 | 0.00 | 79 | 1015.5 |
| 20260503035912 | 2 | 206 | 0.0 | 0.0 | 0.00 | 0.00 | 0.00 | 79 | 1015.6 |
| 20260503035409 | 2 | 206 | 0.0 | 0.0 | 0.00 | 0.00 | 0.00 | 80 | 1015.6 |
| 20260503034906 | 2 | 206 | 0.0 | 0.0 | 0.00 | 0.00 | 0.00 | 79 | 1015.4 |
| 20260503034403 | 2 | 206 | 0.0 | 0.0 | 0.00 | 0.00 | 0.00 | 80 | 1015.5 |
| 20260503033900 | 2 | 206 | 0.0 | 0.0 | 0.00 | 0.00 | 0.00 | 79 | 1015.4 |